Lemur-2 TomatoKechup

operational
NORAD ID: 60471 Int'l Des: 2024-149 Owner: SPIREG/HUBN Country: US Constellation: spire
LEOCIRCULARRETROGRADESSO

关于 Lemur-2 TomatoKechup

正在加载描述...

实时位置

正在加载3D地球...

即将过境

高度历史

Altitude vs Time

uPlot chart will show altitude changes over time

两行轨道根数

1 60471U 24149D 26062.16768955 .00014594 00000-0 45209-3 0 9997
2 60471 97.3859 144.1124 0000898 205.9651 154.1547 15.33548678 85900
Epoch: Mar 3, 2026 • Age: 19 hours

当前状态

高度 481.9 km
速度 7.62 km/s
星下点 -42.57°S, 57.5°E
发射日期 Aug 16, 2024
运行时间 1.5 years
类型 other

技术详情

分类 Payload
质量 22.00 kg
干质量 22.00 kg
总质量 22.00 kg
长度 0.50 m
直径 0.20 m
跨度 2.00 m
形状 Box+ 4 pan
制造商 SPIREG
平台类型 Cubesat 16U
阶段状态 In Orbit
所有者/国家 SPIREG/HUBN/US

大型星座

Loading constellations...